{"data":{"norad_id":59894,"epoch":"2026-09-21T21:18:10.145952Z","epoch_age_seconds":54598,"freshness":"FRESH","line1":"1 59894U 24100K   26264.88761743  .00000159  00000+0  15302-4 0  9995","line2":"2 59894  43.0014  90.3813 0000880 260.7845  99.2907 15.27576591131246","mean_motion":15.27576591,"eccentricity":8.8e-5,"inclination_deg":43.0014,"raan_deg":90.3813,"arg_perigee_deg":260.7845,"mean_anomaly_deg":99.2907,"bstar":1.5302e-5,"rev_number":13124,"period_min":94.266959083036,"perigee_km":482.45551855628,"apogee_km":483.66308910575,"semimajor_km":6861.196303831,"source":"CELESTRAK","updated_at":"2026-09-22T09:00:49.107383Z"}}